sat.trackr.live / text

‹ back to catalog

STARLINK-6271

NORAD 56397 · 2023-061Z

PAYLOAD ACTIVE UNKNOWN

§ Identity

Operator
Country
US
Launch date
2023-05-04
Launch site
AFETR
Launch vehicle
Mass (kg)
RCS (m²)

Purposes: comms

External: N2YO · Heavens-Above · Gunter

§ Orbital elements

Epoch: 2026-05-25T05:00:55.187712Z

Period
94.27 min
Inclination
43.0013°
Eccentricity
0.0000867
Mean motion
15.27573513 rev/d
Perigee alt
482.5 km
Apogee alt
483.7 km
Semi-major
6,861.2 km
B*
2.9531e-6
RAAN
115.2041°
Arg perigee
269.1024°
Mean anomaly
90.9729°
Rev number
16,857

§ Raw data

STARLINK-62711 56397U 23061Z   26145.20897208 -.00000181  00000+0  29531-5 0  99912 56397  43.0013 115.2041 0000867 269.1024  90.9729 15.27573513168574

JSON: /api/v1/satellites/56397 · /tle

For live sub-satellite position, see the globe view (requires WebGL).

§ Visibility from observer

Set your observer location to see the next 7 days of passes ≥ 10°. The values pass through the URL so the page stays shareable.

No JS? Fill the form by hand. The geolocation button needs JavaScript.